TimeEDT,TemperatureF,Dew PointF,Humidity,Sea Level PressureIn,VisibilityMPH,Wind Direction,Wind SpeedMPH,Gust SpeedMPH,PrecipitationIn,Events,Conditions,WindDirDegrees,DateUTC
12:51 AM,66.9,63.0,87,30.01,10.0,Calm,Calm,-,N/A,,Scattered Clouds,0,2013-08-20 04:51:00
1:51 AM,64.0,62.1,93,30.01,10.0,Calm,Calm,-,N/A,,Partly Cloudy,0,2013-08-20 05:51:00
2:51 AM,64.9,62.1,90,30.02,10.0,Calm,Calm,-,N/A,,Clear,0,2013-08-20 06:51:00
3:51 AM,63.0,61.0,93,30.02,10.0,Calm,Calm,-,N/A,,Clear,0,2013-08-20 07:51:00
4:51 AM,62.1,60.1,93,30.03,10.0,Calm,Calm,-,N/A,,Clear,0,2013-08-20 08:51:00
5:51 AM,59.0,57.9,96,30.04,10.0,WNW,3.5,-,N/A,,Partly Cloudy,300,2013-08-20 09:51:00
6:51 AM,61.0,57.9,90,30.06,10.0,West,3.5,-,N/A,,Clear,270,2013-08-20 10:51:00
7:51 AM,68.0,61.0,78,30.08,10.0,Calm,Calm,-,N/A,,Clear,0,2013-08-20 11:51:00
8:51 AM,72.0,59.0,64,30.09,10.0,Calm,Calm,-,N/A,,Clear,0,2013-08-20 12:51:00
9:51 AM,75.9,59.0,56,30.10,10.0,Calm,Calm,-,N/A,,Clear,0,2013-08-20 13:51:00
10:51 AM,80.1,61.0,52,30.09,10.0,NNW,8.1,-,N/A,,Clear,330,2013-08-20 14:51:00
11:51 AM,82.9,60.1,46,30.09,10.0,NNW,8.1,16.1,N/A,,Partly Cloudy,340,2013-08-20 15:51:00
12:51 PM,84.0,59.0,43,30.08,10.0,WNW,9.2,-,N/A,,Partly Cloudy,300,2013-08-20 16:51:00
1:51 PM,84.0,59.0,43,30.07,10.0,WNW,9.2,-,N/A,,Scattered Clouds,290,2013-08-20 17:51:00
2:51 PM,84.9,57.9,40,30.06,10.0,WNW,6.9,-,N/A,,Partly Cloudy,300,2013-08-20 18:51:00
3:51 PM,86.0,57.0,37,30.06,10.0,WNW,8.1,-,N/A,,Partly Cloudy,290,2013-08-20 19:51:00
4:51 PM,84.9,57.9,40,30.06,10.0,NW,10.4,-,N/A,,Partly Cloudy,320,2013-08-20 20:51:00
5:51 PM,82.9,57.9,42,30.06,10.0,NW,5.8,-,N/A,,Partly Cloudy,320,2013-08-20 21:51:00
6:51 PM,81.0,60.1,49,30.07,10.0,WNW,3.5,-,N/A,,Clear,300,2013-08-20 22:51:00
7:51 PM,75.0,64.0,69,30.08,10.0,West,3.5,-,N/A,,Clear,270,2013-08-20 23:51:00
8:51 PM,72.0,64.0,76,30.09,10.0,WSW,3.5,-,N/A,,Clear,250,2013-08-21 00:51:00
9:51 PM,71.1,64.0,78,30.10,10.0,West,3.5,-,N/A,,Clear,280,2013-08-21 01:51:00
10:51 PM,70.0,64.0,81,30.11,10.0,West,4.6,-,N/A,,Clear,280,2013-08-21 02:51:00
11:51 PM,66.0,63.0,90,30.11,10.0,Calm,Calm,-,N/A,,Clear,0,2013-08-21 03:51:00